User: anonymous   Login
Location: Muenchen
(48.1800°N, 11.5800°E)
Time: 23:56:33
(UTC+01:00)
Language:

Tiros 1 - Orbit

View from above orbital plane
View from above orbital plane
View from above satellite
View from above satellite

Ground track
Ground track

The orbit data is extracted from the following two-line orbital elements,

1    29U 60002B   18320.54591942 -.00000129 +00000-0 +11694-4 0  9990
2    29 048.3782 160.4887 0024436 275.9912 083.8215 14.74274440133127
Epoch (UTC): 16 November 2018 13:06:07
Eccentricity: 0.0024436
inclination: 48.3782°
perigee height: 630 km
apogee height: 664 km
right ascension of ascending node: 160.4887°
argument of perigee: 275.9912°
revolutions per day: 14.74274440
mean anomaly at epoch: 83.8215°
orbit number at epoch: 13312

The dashed part of the orbit path shows where the satellite is in the earth's shadow,  

DLR